Hourly Data Report for October 21, 2016

All times are specified in Local Standard Time (LST). Add 1 hour to adjust for Daylight Saving Time where and when it is observed.

MONCTON INTL A
NEW BRUNSWICK

46°06'44.000" N
64°40'43.000" W
70.70 m
8103201
71705
YQM

Download Data

Hourly Data (October 2016)
Hourly Data Report for October 21, 2016
Temp Definition
°C
Dew Point Temp Definition
°C
Rel Hum Definition
%
Wind Dir Definition
10's deg

Wind Spd Definition
km/h
Visibility Definition
km
Stn Press Definition
kPa
Hmdx Definition


Wind Chill Definition


Weather Definition


TIME
00:00 Legend Double Dagger 8.5 5.8 83 9 14 24.1 101.72     LegendNANA
01:00 Legend Double Dagger 8.5 6.0 84 8 15 24.1 101.67     LegendNANA
02:00 Legend Double Dagger 8.5 6.1 85 9 15 24.1 101.63     Cloudy
03:00 Legend Double Dagger 8.3 6.1 86 9 14 24.1 101.58     LegendNANA
04:00 Legend Double Dagger 8.4 6.2 86 10 8 24.1 101.59     LegendNANA
05:00 Legend Double Dagger 8.4 6.4 87 9 18 24.1 101.48     Cloudy
06:00 Legend Double Dagger 8.5 6.1 85 11 21 24.1 101.37     LegendNANA
07:00 Legend Double Dagger 8.3 6.1 86 10 17 24.1 101.29     LegendNANA
08:00 Legend Double Dagger 9.6 7.1 84 11 13 24.1 101.26     Mostly Cloudy
09:00 Legend Double Dagger 11.1 7.8 80 12 15 24.1 101.14     LegendNANA
10:00 Legend Double Dagger 11.4 8.3 81 11 16 24.1 101.00     LegendNANA
11:00 Legend Double Dagger 11.2 10.4 95 13 18 12.9 100.89     Rain
12:00 Legend Double Dagger 12.3 11.2 93 15 30 24.1 100.78     LegendNANA
13:00 Legend Double Dagger 13.2 11.8 91 15 36 24.1 100.67     LegendNANA
14:00 Legend Double Dagger 14.2 12.3 88 16 34 24.1 100.63     Cloudy
15:00 Legend Double Dagger 14.4 12.6 89 16 33 24.1 100.60     LegendNANA
16:00 Legend Double Dagger 14.4 12.8 90 16 24 24.1 100.53     LegendNANA
17:00 Legend Double Dagger 14.0 12.9 93 16 26 24.1 100.48     Cloudy
18:00 Legend Double Dagger 14.3 13.5 95 15 22 19.3 100.44     LegendNANA
19:00 Legend Double Dagger 14.2 13.4 95 14 20 24.1 100.43     LegendNANA
20:00 Legend Double Dagger 14.1 13.6 97 13 13 16.1 100.38     Cloudy
21:00 Legend Double Dagger 14.3 14.0 98 13 13 8.1 100.29     Drizzle,Fog
22:00 Legend Double Dagger 14.9 14.6 98 13 10 9.7 100.19     Fog
23:00 Legend Double Dagger 14.9 14.6 98 7 13 6.4 100.04     Drizzle,Fog

Notes on Data Quality.

Legend

  • E = Estimated
  • M = Missing
  • NA = Not Available
  • ‡ = Partner data that is not subject to review by the National Climate Archives
Date modified: